Kuchera_Ratio
0.0 0.0 0.0 0.0 0.0 0.0 0.0 0.0 0.0 0.0 0.0 0.0 0.0 0.0 0.0 0.0 0.0 0.0 0.0 0.0 0.0 0.0 0.0 0.0 0.0 0.0 0.0 0.0 0.0 0.0 0.0 0.0 0.0 0.0 0.0 0.0 0.0 0.0 0.0 0.0 0.0 0.0 0.0 0.0 0.0
0.0 0.0 0.0 0.0 0.0 0.0 0.0 0.0 0.0 0.0 0.0 0.0 0.0 0.0 0.0 0.0 0.0 0.0 0.0 0.0 0.0 0.0 0.0 0.0 0.0 0.0 0.0 0.0 0.0 0.0 0.0 0.0 0.0 0.0 0.0 0.0 0.0 0.0 0.0 0.0 0.0 0.0 0.0 0.0 0.0
0.0 0.0 0.0 0.0 0.0 0.0 0.0 0.0 0.0 0.0 0.0 0.0 0.0 0.0 0.0 0.0 0.0 0.0 0.0 0.0 0.0 0.0 0.0 0.0 0.0 0.0 0.0 0.0 0.0 0.0 0.0 0.0 0.0 0.0 0.0 0.0 0.0 0.0 0.0 0.0 0.0 0.0 0.0 0.0 0.0
0.0 0.0 0.0 0.0 0.0 0.0 0.0 0.0 0.0 0.0 0.0 0.0 0.0 0.0 0.0 0.0 0.0 0.0 0.0 0.0 0.0 0.0 0.0 0.0 0.0 0.0 0.0 0.0 0.0 0.0 0.0 0.0 0.0 0.0 0.0 0.0 0.0 0.0 0.0 0.0 0.0 0.0 0.0 0.0 0.0
0.0 0.0 0.0 0.0 0.0 0.0 0.0 0.0 0.0 0.0 0.0 0.0 0.0 0.0 0.0 0.0 0.0 0.0 0.0 0.0 0.0 0.0 0.0 0.0 0.0 0.0 0.0 0.0 0.0 0.0 0.0 0.0 0.0 0.0 0.0 0.0 0.0 0.0 0.0 0.0 0.0 0.0 0.0 0.0 0.0
0.0 0.0 0.0 0.0 0.0 0.0 0.0 0.0 0.0 0.0 0.0 0.0 0.0 0.0 0.0 0.0 0.0 0.0 0.0 0.0 0.0 0.0 0.0 0.0 0.0 0.0 0.0 0.0 0.0 0.0 0.0 0.0 0.0 0.0 0.0 0.0 0.0 0.0 0.0 0.0 0.0 0.0 0.0 0.0 0.0
0.0 0.0 0.0 0.0 0.0 0.0 0.0 0.0 0.0 0.0 0.0 0.0 0.0 0.0 0.0 0.0 0.0 0.0 0.0 0.0 0.0 0.0 0.0 0.0 0.0 0.0 0.0 0.0 0.0 0.0 0.0 0.0 0.0 0.0 0.0 0.0 0.0 0.0 0.0 0.0 0.0 0.0 0.0 0.0 0.0
0.0 0.0 0.0 0.0 0.0 0.0 0.0 0.0 0.0 0.0 0.0 0.0 0.0 0.0 0.0 0.0 0.0 0.0 0.0 0.0 0.0 0.0 0.0 0.0 0.0 0.0 0.0 0.0 0.0 0.0 0.0 0.0 0.0 0.0 0.0 0.0 0.0 0.0 0.0 0.0 0.0 0.0 0.0 0.0 0.0
0.0 0.0 0.0 0.0 0.0 0.0 0.0 0.0 0.0 0.0 0.0 0.0 0.0 0.0 0.0 0.0 0.0 0.0 0.0 0.0 0.0 0.0 0.0 0.0 0.0 0.0 0.0 0.0 0.0 0.0 0.0 0.0 0.0 0.0 0.0 0.0 0.0 0.0 0.0 0.0 0.0 0.0 0.0 0.0 0.0
0.0 0.0 0.0 0.0 0.0 0.0 0.0 0.0 0.0 0.0 0.0 0.0 0.0 0.0 0.0 0.0 0.0 0.0 0.0 0.0 0.0 0.0 0.0 0.0 0.0 0.0 0.0 0.0 0.0 0.0 0.0 0.0 0.0 0.0 0.0 0.0 0.0 0.0 0.0 0.0 0.0 0.0 0.0 0.0 0.0
0.0 0.0 0.0 0.0 0.0 0.0 0.0 0.0 0.0 0.0 0.0 0.0 0.0 0.0 0.0 0.0 0.0 0.0 0.0 0.0 0.0 0.0 0.0 0.0 0.0 0.0 0.0 0.0 0.0 0.0 0.0 0.0 0.0 0.0 0.0 0.0 0.0 0.0 0.0 0.0 0.0 0.0 0.0 0.0 0.0
0.0 0.0 0.0 0.0 0.0 0.0 0.0 0.0 0.0 0.0 0.0 0.0 0.0 0.0 0.0 0.0 0.0 0.0 0.0 0.0 0.0 0.0 0.0 0.0 0.0 0.0 0.0 0.0 0.0 0.0 0.0 0.0 0.0 0.0 0.0 0.0 0.0 0.0 0.0 0.0 0.0 0.0 0.0 0.0 0.0
0.0 0.0 0.0 0.0 0.0 0.0 0.0 0.0 0.0 0.0 0.0 0.0 0.0 0.0 0.0 0.0 0.0 0.0 0.0 0.0 0.0 0.0 0.0 0.0 0.0 0.0 0.0 0.0 0.0 0.0 0.0 0.0 1.1 0.4 0.4 0.0 0.0 0.0 0.0 0.0 0.0 0.0 0.0 0.0 0.0
0.0 0.0 0.0 0.0 0.0 0.0 0.0 0.0 0.0 0.0 1.6 2.8 0.0 0.0 0.0 0.0 0.0 0.0 0.0 0.0 0.0 0.2 0.3 0.1 0.8 0.6 1.1 1.2 1.1 1.7 2.6 2.3 2.4 2.2 3.5 2.9 3.6 0.0 0.0 0.0 0.0 0.0 0.0 0.0 0.0
0.0 0.0 0.0 0.0 0.0 0.0 0.0 0.0 0.0 0.0 11.9 3.5 0.8 0.0 0.0 0.0 1.6 0.0 0.0 0.0 1.5 0.6 1.4 3.1 3.3 3.3 3.8 3.1 3.8 4.2 4.8 4.9 4.7 5.3 6.3 5.7 6.1 0.0 0.0 0.0 0.0 0.0 0.0 0.0 0.0
0.0 0.0 0.0 0.0 0.0 0.0 0.0 0.0 0.0 5.3 12.6 6.4 2.3 2.0 3.7 1.7 2.7 1.5 0.0 0.0 0.0 2.7 4.0 5.3 2.1 4.3 5.0 5.3 5.5 6.0 6.8 7.1 7.8 8.4 12.1 7.7 5.7 0.0 0.0 0.0 0.0 0.0 0.0 0.0 0.0
0.0 0.0 0.0 0.0 0.0 0.0 0.0 0.0 6.8 11.2 4.1 6.8 5.7 5.5 6.3 6.9 6.7 7.0 6.3 5.7 4.6 8.0 7.6 7.6 8.0 5.5 5.9 7.1 8.0 7.9 6.5 9.1 12.8 12.8 12.2 10.4 11.1 0.5 0.0 0.0 0.0 0.0 0.0 0.0 0.0
0.0 0.0 0.0 0.0 0.0 0.0 0.0 3.2 12.8 3.6 5.4 5.2 6.0 7.1 7.6 7.5 7.6 7.8 8.1 7.3 6.6 6.1 4.9 8.0 9.9 9.0 6.9 8.8 7.4 9.4 8.4 6.9 13.1 12.3 11.3 12.4 11.2 0.0 0.0 0.0 0.0 0.0 0.0 0.0 0.0
0.0 0.0 0.0 0.0 0.0 0.0 0.0 10.3 4.7 2.0 1.7 3.1 5.0 6.3 7.6 7.2 7.8 7.9 7.9 6.0 4.4 4.2 1.3 6.5 9.0 7.7 9.7 10.5 9.5 12.6 12.4 9.7 11.8 13.3 13.6 8.6 4.8 0.0 0.0 0.0 0.0 0.0 0.0 0.0 0.0
0.0 0.0 0.0 0.0 0.0 0.0 7.1 8.2 2.9 0.0 1.5 2.8 0.5 3.2 5.6 4.9 6.9 6.2 6.4 3.8 2.6 2.0 2.2 4.4 8.1 9.8 11.1 11.2 12.6 12.2 11.6 12.7 13.0 14.9 14.5 12.5 11.6 3.4 0.0 0.0 0.0 0.0 0.0 0.0 0.0
0.0 4.3 0.0 0.0 0.0 2.7 13.1 9.3 0.4 0.0 0.0 0.5 2.1 3.5 5.3 5.8 6.6 6.1 7.4 2.3 2.6 2.7 5.6 5.8 6.0 12.7 12.9 12.4 9.4 11.8 13.1 12.4 11.7 12.6 13.5 13.3 8.8 0.0 0.0 0.0 0.0 0.0 0.0 0.0 0.0
0.0 7.1 0.0 0.0 6.1 9.0 10.5 5.4 0.0 0.0 0.0 0.0 0.3 1.1 3.1 2.4 4.7 7.0 3.9 0.0 0.5 0.0 4.3 4.4 8.2 12.3 11.6 11.6 12.0 12.4 12.4 10.8 11.7 13.3 13.8 14.6 12.4 0.0 0.0 0.0 0.0 0.0 0.0 0.0 0.0
2.4 7.2 0.0 0.0 12.9 13.2 11.0 6.7 2.5 2.2 0.5 0.7 0.2 0.1 1.4 3.7 5.4 4.9 2.6 1.3 0.1 0.0 0.8 3.1 11.0 13.6 15.1 15.5 14.9 13.5 11.6 11.6 11.8 12.6 12.9 14.7 10.2 0.0 0.0 0.0 0.0 0.0 0.0 0.0 0.0
4.3 11.7 7.7 4.8 8.9 10.4 11.5 9.5 7.4 0.0 0.0 0.0 0.0 1.2 4.1 6.1 2.1 4.2 5.2 2.9 3.3 1.7 0.0 1.0 5.6 11.8 12.3 9.6 9.1 12.8 10.8 10.4 12.8 14.7 14.3 12.8 4.3 1.8 0.0 0.0 0.0 0.0 0.0 0.0 0.0
2.3 9.2 6.8 12.8 11.3 12.3 10.6 8.2 7.5 5.8 1.8 0.4 3.6 3.4 2.7 7.7 7.2 7.1 7.7 5.7 5.7 3.5 3.6 3.6 10.1 10.0 7.1 6.2 6.1 5.7 4.5 8.7 12.0 10.3 14.9 5.7 8.0 2.2 0.0 0.0 0.0 0.0 0.0 0.0 0.0
4.1 8.1 9.7 10.9 7.0 10.5 9.0 10.9 11.0 6.7 4.5 5.7 5.8 2.3 2.5 3.0 1.7 6.1 3.5 5.3 2.5 8.2 7.9 10.0 12.1 11.9 12.8 11.8 12.4 12.3 8.9 9.3 6.3 10.9 12.5 9.3 10.1 1.3 0.0 0.0 0.0 0.0 0.0 0.0 0.0
0.0 0.0 2.1 7.1 12.3 12.8 11.4 9.5 7.9 3.3 1.1 0.0 2.3 4.5 6.3 3.3 0.0 0.0 0.0 0.1 1.9 2.3 10.8 12.6 13.2 14.5 15.1 13.9 14.6 15.9 10.9 12.4 12.7 9.2 8.6 13.2 3.0 1.5 1.0 1.5 0.0 0.0 0.0 0.0 0.0